Mountain Home, ID

3:53 PM MDT on July 20, 2017 (GMT -0600)
Mountain Home Air Force Base

Weather History for KMUO - September, 2013

Change the Weather History Date:

Sunday, September 29, 2013

  Actual Average Record
Temperature  
Mean Temperature 60 °F 58 °F  
Max Temperature 69 °F 74 °F 94 °F (1906)
Min Temperature 51 °F 41 °F 0 °F (1926)
Degree Days  
Heating Degree Days 5 7  
Month to date heating degree days 92 111  
Cooling Degree Days 0 1  
Month to date cooling degree days 130 89  
Growing Degree Days 9 (Base 50)    
Moisture  
Dew Point 41 °F    
Average Humidity 51    
Maximum Humidity 97    
Minimum Humidity 25    
Precipitation  
Precipitation T in 0.01 in 0.55 in (2014)
Month to date precipitation 0.48 0.47  
Sea Level Pressure  
Sea Level Pressure 29.78 in    
Wind  
Wind Speed 11 mph (West)    
Max Wind Speed 21 mph    
Max Gust Speed 29 mph    
Visibility 10 miles    
Events      
T = Trace of Precipitation, MM = Missing Value Source: NWS Daily Summary

Daily Weather History Graph

Daily Weather History Graph

Search for Another Location

Airport or City:

Trip Planner

Search our weather history database for the weather conditions in past years. The results will help you decide how hot, cold, wet, or windy it might be!

Date:

Astronomy

Sep. 29, 2013 Rise Set
Actual Time 7:38 AM MDT 7:27 PM MDT
Civil Twilight 7:10 AM MDT 7:55 PM MDT
Nautical Twilight 6:37 AM MDT 8:28 PM MDT
Astronomical Twilight 6:04 AM MDT 9:02 PM MDT
Moon 2:17 AM MDT (9/29) 4:32 PM MDT (9/29)
Length of Visible Light 12h 45m
Length of Day
11h 48m
Waning Crescent, 26% of the Moon is Illuminated
Sep 29
Waning Crescent
Oct 4
New
Oct 11
First Quarter
Oct 18
Full
Oct 26
Last Quarter

Hourly Weather History & Observations

Time (MDT) Temp. Dew Point Humidity Pressure Visibility Wind Dir Wind Speed Gust Speed Precip Events Conditions
12:58 AM 65.5 °F 33.8 °F 31% 29.81 in 10.0 mi South 12.7 mph 20.7 mph N/A   Overcast
1:58 AM 62.4 °F 35.2 °F 36% 29.81 in 10.0 mi SE 10.4 mph - N/A   Overcast
2:58 AM 67.5 °F 33.1 °F 28% 29.78 in 10.0 mi SSW 11.5 mph - N/A   Overcast
3:58 AM 67.1 °F 34.3 °F 30% 29.77 in 10.0 mi SSW 11.5 mph - N/A   Overcast
4:58 AM 63.0 °F 37.4 °F 39% 29.77 in 10.0 mi South 9.2 mph - N/A   Overcast
5:58 AM 66.4 °F 34.5 °F 31% 29.74 in 10.0 mi SW 9.2 mph 20.7 mph N/A   Overcast
6:59 AM 68.4 °F 31.5 °F 25% 29.76 in 10.0 mi SW 10.4 mph 21.9 mph N/A   Overcast
7:58 AM 66.7 °F 32.9 °F 28% 29.78 in 10.0 mi SW 8.1 mph - N/A   Overcast
8:58 AM 67.5 °F 32.4 °F 27% 29.77 in 10.0 mi SW 19.6 mph 28.8 mph N/A   Overcast
9:58 AM 66.0 °F 33.8 °F 30% 29.78 in 10.0 mi WSW 13.8 mph - N/A   Overcast
10:58 AM 66.0 °F 34.2 °F 31% 29.77 in 10.0 mi SW 11.5 mph - N/A   Overcast
11:58 AM 66.9 °F 34.2 °F 30% 29.78 in 10.0 mi WSW 12.7 mph - N/A   Overcast
12:58 PM 67.5 °F 35.8 °F 31% 29.78 in 10.0 mi WSW 20.7 mph 27.6 mph N/A   Overcast
1:13 PM 68.0 °F 35.6 °F 30% 29.82 in 10.0 mi WSW 13.8 mph - N/A   Overcast
1:18 PM 68.0 °F 35.6 °F 30% 29.82 in 10.0 mi WSW 17.3 mph 23.0 mph N/A   Overcast
1:38 PM 68.0 °F 37.4 °F 33% 29.82 in 10.0 mi WNW 12.7 mph - N/A   Overcast
1:58 PM 65.7 °F 40.1 °F 39% 29.76 in 10.0 mi NNW 9.2 mph - N/A   Overcast
2:58 PM 66.9 °F 41.7 °F 40% 29.75 in 10.0 mi NW 15.0 mph - N/A   Overcast
3:58 PM 65.7 °F 42.6 °F 43% 29.76 in 10.0 mi NW 9.2 mph - N/A   Partly Cloudy
4:58 PM 65.8 °F 41.2 °F 41% 29.74 in 10.0 mi NW 10.4 mph - N/A   Overcast
5:58 PM 64.4 °F 43.9 °F 47% 29.75 in 10.0 mi NNW 15.0 mph - N/A   Mostly Cloudy
6:58 PM 58.1 °F 48.9 °F 71% 29.77 in 10.0 mi NNW 10.4 mph - N/A   Overcast
7:58 PM 54.7 °F 50.4 °F 85% 29.78 in 10.0 mi WNW 5.8 mph - N/A   Overcast
8:13 PM 53.6 °F 50.0 °F 88% 29.81 in 10.0 mi West 5.8 mph - N/A   Overcast
8:23 PM 53.6 °F 50.0 °F 88% 29.81 in 10.0 mi WNW 4.6 mph - N/A   Overcast
8:58 PM 53.2 °F 49.5 °F 87% 29.78 in 10.0 mi WNW 6.9 mph - N/A   Overcast
9:13 PM 51.8 °F 48.2 °F 88% 29.81 in 10.0 mi West 5.8 mph - N/A   Overcast
9:43 PM 51.8 °F 48.2 °F 88% 29.82 in 10.0 mi West 9.2 mph - N/A   Overcast
9:58 PM 50.7 °F 49.1 °F 94% 29.79 in 10.0 mi WSW 4.6 mph - N/A   Overcast
10:58 PM 50.9 °F 49.6 °F 95% 29.77 in 10.0 mi Calm Calm - N/A   Overcast
11:58 PM 52.0 °F 51.1 °F 97% 29.77 in 10.0 mi NNW 6.9 mph - 0.00 in   Light Drizzle